Location: *
(50.8512°N, 5.6907°E)
Time: 02:40:13
(UTC+00:00)

Cosmos 1356 Rocket - Pass Details

Date: 09 April 2020
Orbit: 543 x 599 km, 81.2° (Epoch: 03 June)

Event Time Altitude Azimuth Distance (km) Brightness Sun altitude
Exits shadow 20:13:48 28° 97° (E) 1,124 4.4 -16.5°
Maximum altitude 20:14:00 28° 92° (E) 1,120 4.4 -16.5°
Drops below altitude 10° 20:17:39 10° 33° (NNE) 1,921 6.1 -17.0°
Sets 20:20:03 0° 22° (NNE) 2,818 7.2 -17.3°
